Simultaneous Nadir Overpasses (SNOs) Predictions

Prediction of SNOs between GOES-17 and NPP Satellite Orbit:

Table of predicted SNOs for the next 14.0 days since TLE Epoch: 6/5/2021
Index Date Time (GOES-17) GOES-17 Lat,Lon NPP Lat,Lon Distance(km) Time Diff (sec)
1 06/05/2021 22:36:24 -0.01,-137.18 -0.08,-137.56 42.63 80
2 06/06/2021 22:14:59 -0.00,-137.18 0.90,-133.02 472.85 80
3 06/08/2021 10:39:29 0.00,-137.16 0.25,-138.30 129.49 80
4 06/09/2021 10:18:04 -0.00,-137.15 -0.74,-133.77 385.41 80
5 06/10/2021 22:40:01 0.00,-137.14 -0.45,-139.07 221.32 80
6 06/11/2021 22:23:58 0.01,-137.12 0.60,-134.55 293.21 80
7 06/13/2021 10:45:46 -0.01,-137.09 0.61,-139.82 310.54 80
8 06/14/2021 10:24:23 -0.01,-137.07 -0.43,-135.29 203.58 80
9 06/15/2021 22:46:19 0.01,-137.04 -0.80,-140.59 404.41 80
10 06/16/2021 22:30:16 0.01,-137.02 0.25,-136.07 109.53 80
11 06/18/2021 10:52:04 -0.00,-136.99 0.97,-141.33 495.09 80
